This is the latest recevied weather packets stored in our database for station/object SP2FH-13. If no packets are shown the sender has not sent any weather packets the latest 10 day(s).
| Time | Temp. | Humidity | Pressure | Rain* | Wind** | Luminosity | Snow |
|---|---|---|---|---|---|---|---|
| 1778404945 | 16.11° C | 44% | 1006 hPa | - | - | 692 W/m² | - |
| 1778404644 | 16.11° C | 46% | 1006 hPa | - | - | 685 W/m² | - |
| 1778404343 | 15.56° C | 46% | 1005.8 hPa | - | - | 681 W/m² | - |
| 1778404042 | 15.56° C | 46% | 1005.8 hPa | - | - | 672 W/m² | - |
| 1778403741 | 15° C | 48% | 1005.8 hPa | - | - | 668 W/m² | - |
| 1778403439 | 15° C | 47% | 1005.7 hPa | - | - | 661 W/m² | - |
| 1778403138 | 15.56° C | 45% | 1005.7 hPa | - | - | 654 W/m² | - |
| 1778402837 | 15.56° C | 48% | 1005.9 hPa | - | - | 654 W/m² | - |
| 1778402536 | 15° C | 46% | 1006.2 hPa | - | - | 640 W/m² | - |
| 1778402235 | 15° C | 48% | 1006.3 hPa | - | - | 630 W/m² | - |
| 1778401934 | 15.56° C | 46% | 1006.4 hPa | - | - | 623 W/m² | - |
| 1778401632 | 15° C | 46% | 1006.5 hPa | - | - | 621 W/m² | - |
| 1778401331 | 15° C | 47% | 1006.5 hPa | - | - | 613 W/m² | - |
| 1778401030 | 15° C | 49% | 1006.5 hPa | - | - | 605 W/m² | - |
| 1778400729 | 14.44° C | 48% | 1006.5 hPa | - | - | 599 W/m² | - |
| 1778400427 | 15° C | 49% | 1006.4 hPa | - | - | 591 W/m² | - |
| 1778400126 | 15° C | 51% | 1006.4 hPa | - | - | 577 W/m² | - |
| 1778399826 | 14.44° C | 47% | 1006.5 hPa | - | - | 566 W/m² | - |
| 1778399524 | 15° C | 52% | 1006.4 hPa | - | - | 551 W/m² | - |
| 1778399223 | 14.44° C | 54% | 1006.4 hPa | - | - | 537 W/m² | - |
| 1778398922 | 15.56° C | 47% | 1006.5 hPa | - | - | 522 W/m² | - |
| 1778398621 | 15.56° C | 50% | 1006.5 hPa | - | - | 520 W/m² | - |
| 1778398319 | 16.67° C | 49% | 1006.6 hPa | - | - | 510 W/m² | - |
| 1778398018 | 16.11° C | 49% | 1006.6 hPa | - | - | 499 W/m² | - |
| 1778397717 | 15.56° C | 48% | 1006.7 hPa | - | - | 488 W/m² | - |
* Rain since midnight (hover to see other rain measurements)
** Current wind speed in m/s (hover to see current wind gust speed)